| time (UTC) | temp F | wind direction | speed MPH | gust MPH | rain 1hr in | rain 24hr in | rain mn in | humidity % | barometer mb |
| 20260902002909 | 51 | 146 | 0.0 | 0.0 | 0.00 | 0.05 | 0.00 | 99 | 1019.2 |
| 20260901234907 | 52 | 146 | 0.0 | 0.0 | 0.00 | 0.05 | 0.00 | 99 | 1019.2 |
| 20260901233907 | 52 | 139 | 0.0 | 0.0 | 0.00 | 0.05 | 0.00 | 99 | 1019.2 |
| 20260901231912 | 53 | 142 | 0.0 | 0.0 | 0.00 | 0.05 | 0.00 | 99 | 1019.0 |
| 20260901230855 | 53 | 142 | 0.0 | 0.0 | 0.00 | 0.05 | 0.00 | 99 | 1019.2 |
| 20260901225856 | 54 | 145 | 0.0 | 0.0 | 0.00 | 0.05 | 0.00 | 99 | 1019.2 |
| 20260901224848 | 54 | 142 | 0.0 | 0.0 | 0.00 | 0.05 | 0.00 | 98 | 1019.2 |
| 20260901223842 | 54 | 142 | 0.0 | 0.0 | 0.00 | 0.05 | 0.00 | 98 | 1019.1 |
| 20260901221855 | 55 | 147 | 0.0 | 0.0 | 0.00 | 0.05 | 0.00 | 97 | 1019.1 |
| 20260901220842 | 55 | 145 | 0.0 | 0.0 | 0.00 | 0.05 | 0.00 | 97 | 1019.1 |
| 20260901215842 | 56 | 145 | 0.0 | 0.0 | 0.00 | 0.05 | 0.05 | 96 | 1019.2 |
| 20260901214846 | 56 | 138 | 0.0 | 0.0 | 0.00 | 0.05 | 0.05 | 95 | 1018.9 |
| 20260901212842 | 57 | 134 | 0.0 | 1.0 | 0.00 | 0.05 | 0.05 | 94 | 1019.1 |
| 20260901211842 | 57 | 131 | 0.0 | 1.0 | 0.00 | 0.05 | 0.05 | 94 | 1019.2 |
| 20260901210848 | 57 | 135 | 0.0 | 1.0 | 0.00 | 0.05 | 0.05 | 95 | 1019.3 |
| 20260901205842 | 57 | 143 | 0.0 | 1.0 | 0.00 | 0.05 | 0.05 | 95 | 1019.2 |
| 20260901204843 | 57 | 142 | 0.0 | 0.0 | 0.00 | 0.05 | 0.05 | 96 | 1019.3 |
| 20260901203844 | 57 | 137 | 0.0 | 0.0 | 0.00 | 0.05 | 0.05 | 96 | 1019.2 |
| 20260901201843 | 58 | 120 | 0.0 | 0.0 | 0.00 | 0.05 | 0.05 | 94 | 1018.9 |
| 20260901200842 | 58 | 132 | 0.0 | 1.0 | 0.00 | 0.05 | 0.05 | 94 | 1019.2 |
| 20260901195844 | 59 | 143 | 0.0 | 0.0 | 0.00 | 0.05 | 0.05 | 94 | 1019.3 |
| 20260901194844 | 59 | 143 | 0.0 | 2.0 | 0.00 | 0.05 | 0.05 | 94 | 1019.0 |
| 20260901193843 | 59 | 139 | 0.0 | 0.0 | 0.00 | 0.05 | 0.05 | 95 | 1019.2 |
| 20260901192842 | 59 | 142 | 0.0 | 0.0 | 0.00 | 0.05 | 0.05 | 96 | 1019.3 |
| 20260901191843 | 58 | 141 | 0.0 | 1.0 | 0.00 | 0.05 | 0.05 | 96 | 1019.3 |
| 20260901190845 | 58 | 142 | 0.0 | 0.0 | 0.00 | 0.05 | 0.05 | 96 | 1019.4 |
| 20260901185843 | 58 | 142 | 0.0 | 0.0 | 0.00 | 0.05 | 0.05 | 96 | 1019.1 |
| 20260901184843 | 58 | 142 | 0.0 | 1.0 | 0.00 | 0.05 | 0.05 | 95 | 1018.9 |
| 20260901182843 | 59 | 143 | 0.0 | 0.0 | 0.00 | 0.05 | 0.05 | 94 | 1019.0 |
| 20260901180844 | 61 | 143 | 0.0 | 0.0 | 0.00 | 0.05 | 0.05 | 91 | 1018.7 |
| 20260901174843 | 63 | 146 | 0.0 | 0.0 | 0.00 | 0.05 | 0.05 | 85 | 1018.7 |
| 20260901173847 | 64 | 152 | 0.0 | 2.0 | 0.00 | 0.05 | 0.05 | 81 | 1018.6 |
| 20260901172845 | 64 | 140 | 0.0 | 1.0 | 0.00 | 0.05 | 0.05 | 79 | 1018.7 |
| 20260901171844 | 65 | 148 | 0.0 | 3.0 | 0.00 | 0.05 | 0.05 | 79 | 1018.2 |
| 20260901165849 | 65 | 130 | 0.0 | 4.0 | 0.00 | 0.05 | 0.05 | 80 | 1018.1 |
| 20260901164836 | 65 | 133 | 0.0 | 2.0 | 0.00 | 0.05 | 0.05 | 82 | 1018.2 |
| 20260901162834 | 66 | 189 | 3.0 | 9.0 | 0.00 | 0.05 | 0.05 | 77 | 1017.9 |
| 20260901161835 | 66 | 260 | 5.0 | 7.0 | 0.00 | 0.05 | 0.05 | 77 | 1018.0 |
| 20260901160838 | 66 | 220 | 0.0 | 3.0 | 0.00 | 0.05 | 0.05 | 80 | 1017.8 |
| 20260901154835 | 69 | 190 | 2.0 | 4.0 | 0.00 | 0.05 | 0.05 | 75 | 1017.9 |
| 20260901153836 | 71 | 150 | 2.0 | 3.0 | 0.00 | 0.05 | 0.05 | 71 | 1017.7 |
| 20260901152835 | 67 | 221 | 1.0 | 8.0 | 0.00 | 0.05 | 0.05 | 79 | 1017.7 |
| 20260901150835 | 66 | 213 | 5.0 | 7.0 | 0.00 | 0.05 | 0.05 | 78 | 1017.9 |
| 20260901145838 | 65 | 224 | 2.0 | 7.0 | 0.00 | 0.05 | 0.05 | 82 | 1017.7 |
| 20260901144840 | 66 | 205 | 1.0 | 8.0 | 0.00 | 0.05 | 0.05 | 80 | 1017.8 |
| 20260901141838 | 67 | 157 | 2.0 | 3.0 | 0.04 | 0.05 | 0.05 | 85 | 1017.9 |
| 20260901140837 | 66 | 30 | 2.0 | 3.0 | 0.04 | 0.05 | 0.05 | 90 | 1017.6 |
| 20260901135839 | 66 | 156 | 1.0 | 3.0 | 0.04 | 0.01 | 0.05 | 92 | 1017.7 |
| 20260901134838 | 63 | 205 | 1.0 | 2.0 | 0.04 | 0.01 | 0.05 | 93 | 1017.8 |
| 20260901131836 | 67 | 258 | 3.0 | 6.0 | 0.00 | 0.01 | 0.01 | 79 | 1017.8 |
| 20260901130836 | 69 | 90 | 2.0 | 17.0 | 0.00 | 0.02 | 0.01 | 77 | 1017.7 |
| 20260901125836 | 68 | 269 | 2.0 | 13.0 | 0.00 | 0.03 | 0.01 | 76 | 1017.7 |
| 20260901121835 | 69 | 235 | 3.0 | 11.0 | 0.00 | 0.06 | 0.01 | 73 | 1017.5 |
| 20260901120835 | 69 | 52 | 3.0 | 14.0 | 0.00 | 0.06 | 0.01 | 75 | 1017.4 |
| 20260901114837 | 66 | 222 | 5.0 | 11.0 | 0.00 | 0.06 | 0.01 | 79 | 1017.3 |
| 20260901113836 | 66 | 146 | 2.0 | 7.0 | 0.00 | 0.06 | 0.01 | 80 | 1017.5 |
| 20260901112836 | 67 | 231 | 6.0 | 7.0 | 0.00 | 0.06 | 0.01 | 79 | 1017.5 |
| 20260901111836 | 66 | 324 | 2.0 | 7.0 | 0.00 | 0.06 | 0.01 | 83 | 1017.5 |
| 20260901110835 | 63 | 163 | 2.0 | 9.0 | 0.00 | 0.06 | 0.01 | 85 | 1017.5 |
| 20260901104840 | 64 | 175 | 2.0 | 10.0 | 0.00 | 0.06 | 0.01 | 84 | 1017.6 |
| 20260901103836 | 64 | 109 | 1.0 | 6.0 | 0.00 | 0.06 | 0.01 | 89 | 1017.3 |
| 20260901102839 | 63 | 182 | 3.0 | 9.0 | 0.00 | 0.06 | 0.01 | 86 | 1017.4 |
| 20260901101836 | 64 | 163 | 1.0 | 11.0 | 0.00 | 0.06 | 0.01 | 83 | 1017.3 |
| 20260901100835 | 65 | 60 | 1.0 | 9.0 | 0.00 | 0.06 | 0.01 | 81 | 1017.0 |
| 20260901095836 | 65 | 209 | 3.0 | 9.0 | 0.00 | 0.06 | 0.01 | 80 | 1017.0 |
| 20260901094836 | 66 | 273 | 1.0 | 11.0 | 0.00 | 0.06 | 0.01 | 79 | 1017.0 |
| 20260901093835 | 68 | 253 | 1.0 | 14.0 | 0.00 | 0.06 | 0.01 | 78 | 1016.9 |
| 20260901091850 | 65 | 59 | 3.0 | 13.0 | 0.00 | 0.06 | 0.01 | 81 | 1016.8 |
| 20260901090838 | 64 | 10 | 7.0 | 11.0 | 0.00 | 0.06 | 0.01 | 81 | 1016.8 |
| 20260901083837 | 67 | 143 | 3.0 | 14.0 | 0.00 | 0.06 | 0.01 | 79 | 1016.4 |
| 20260901082836 | 66 | 192 | 4.0 | 8.0 | 0.00 | 0.06 | 0.01 | 80 | 1016.3 |
| 20260901081838 | 65 | 254 | 6.0 | 8.0 | 0.00 | 0.06 | 0.01 | 82 | 1016.4 |
| 20260901080837 | 67 | 226 | 2.0 | 9.0 | 0.00 | 0.06 | 0.01 | 81 | 1016.7 |
| 20260901074837 | 64 | 139 | 3.0 | 13.0 | 0.00 | 0.06 | 0.01 | 84 | 1016.6 |
| 20260901072837 | 64 | 146 | 0.0 | 11.0 | 0.00 | 0.06 | 0.01 | 85 | 1016.6 |
| 20260901071841 | 64 | 201 | 2.0 | 9.0 | 0.00 | 0.06 | 0.01 | 85 | 1016.4 |
| 20260901070838 | 63 | 195 | 4.0 | 10.0 | 0.00 | 0.06 | 0.01 | 86 | 1016.4 |
| 20260901065839 | 63 | 174 | 3.0 | 7.0 | 0.00 | 0.06 | 0.01 | 86 | 1016.2 |
| 20260901064839 | 63 | 191 | 6.0 | 9.0 | 0.00 | 0.06 | 0.01 | 86 | 1016.1 |
| 20260901063831 | 63 | 221 | 3.0 | 8.0 | 0.00 | 0.06 | 0.01 | 87 | 1015.9 |
| 20260901062830 | 62 | 153 | 4.0 | 7.0 | 0.00 | 0.06 | 0.01 | 88 | 1015.8 |
| 20260901061830 | 62 | 171 | 2.0 | 7.0 | 0.00 | 0.06 | 0.01 | 90 | 1016.0 |
| 20260901055830 | 61 | 184 | 2.0 | 7.0 | 0.00 | 0.06 | 0.01 | 91 | 1015.9 |
| 20260901054833 | 61 | 248 | 2.0 | 7.0 | 0.00 | 0.06 | 0.01 | 91 | 1015.8 |
| 20260901053830 | 60 | 159 | 0.0 | 6.0 | 0.00 | 0.06 | 0.01 | 92 | 1015.7 |
| 20260901052831 | 59 | 205 | 1.0 | 6.0 | 0.00 | 0.06 | 0.01 | 94 | 1015.4 |
| 20260901044818 | 57 | 164 | 1.0 | 1.0 | 0.00 | 0.06 | 0.01 | 98 | 1015.1 |
| 20260901042833 | 56 | 148 | 0.0 | 1.0 | 0.00 | 0.06 | 0.01 | 98 | 1015.1 |
| 20260901041817 | 56 | 129 | 0.0 | 1.0 | 0.00 | 0.06 | 0.01 | 97 | 1015.1 |
| 20260901040822 | 56 | 102 | 0.0 | 2.0 | 0.00 | 0.06 | 0.01 | 97 | 1014.8 |
| 20260901035824 | 56 | 161 | 0.0 | 2.0 | 0.00 | 0.06 | 0.01 | 97 | 1014.6 |
| 20260901033818 | 56 | 126 | 0.0 | 3.0 | 0.00 | 0.06 | 0.01 | 99 | 1014.7 |
| 20260901031825 | 56 | 137 | 0.0 | 1.0 | 0.00 | 0.06 | 0.01 | 99 | 1014.4 |
| 20260901030818 | 56 | 144 | 0.0 | 0.0 | 0.00 | 0.06 | 0.01 | 98 | 1014.0 |
| 20260901025820 | 56 | 139 | 0.0 | 0.0 | 0.00 | 0.06 | 0.01 | 97 | 1014.3 |
| 20260901024821 | 57 | 140 | 0.0 | 0.0 | 0.00 | 0.06 | 0.01 | 97 | 1014.2 |
| 20260901023823 | 58 | 144 | 0.0 | 1.0 | 0.01 | 0.06 | 0.01 | 96 | 1014.3 |
| 20260901022820 | 59 | 132 | 0.0 | 2.0 | 0.01 | 0.06 | 0.01 | 96 | 1014.6 |
| 20260901021818 | 59 | 332 | 0.0 | 2.0 | 0.01 | 0.06 | 0.01 | 96 | 1014.1 |
| 20260901015819 | 59 | 188 | 1.0 | 2.0 | 0.01 | 0.05 | 0.01 | 97 | 1014.3 |
| 20260901014823 | 59 | 106 | 0.0 | 3.0 | 0.01 | 0.05 | 0.01 | 96 | 1014.2 |
| 20260901013823 | 59 | 260 | 2.0 | 3.0 | 0.00 | 0.05 | 0.00 | 97 | 1014.0 |
| 20260901005821 | 61 | 148 | 0.0 | 3.0 | 0.00 | 0.05 | 0.00 | 97 | 1014.2 |
| 20260901004822 | 61 | 148 | 2.0 | 3.0 | 0.00 | 0.05 | 0.00 | 99 | 1014.2 |
| 20260901003824 | 61 | 177 | 2.0 | 6.0 | 0.00 | 0.05 | 0.00 | 99 | 1013.9 |